sat.trackr.live / text

‹ back to catalog

STARLINK-3357

NORAD 51150 · 2022-005AY

PAYLOAD ACTIVE UNKNOWN

§ Identity

Operator
Country
US
Launch date
2022-01-19
Launch site
AFETR
Launch vehicle
Mass (kg)
RCS (m²)

Purposes: comms

External: N2YO · Heavens-Above · Gunter

§ Orbital elements

Epoch: 2026-09-20T03:35:10.237920Z

Period
93.79 min
Inclination
53.1592°
Eccentricity
0.0001195
Mean motion
15.35396574 rev/d
Perigee alt
458.9 km
Apogee alt
460.6 km
Semi-major
6,837.9 km
B*
1.8886e-5
RAAN
132.5678°
Arg perigee
93.0064°
Mean anomaly
267.1076°
Rev number
25,828

§ Raw data

STARLINK-33571 51150U 22005AY  26263.14942405  .00000278  00000+0  18886-4 0  99902 51150  53.1592 132.5678 0001195  93.0064 267.1076 15.35396574258281

JSON: /api/v1/satellites/51150 · /tle

For live sub-satellite position, see the globe view (requires WebGL).

§ Visibility from observer

Set your observer location to see the next 7 days of passes ≥ 10°. The values pass through the URL so the page stays shareable.

No JS? Fill the form by hand. The geolocation button needs JavaScript.